Theta_e
323 326 326 324 326 334 338 337 341 347 346 346 348 344 343 342 346 358 361 357 358 357 358 359 358 358 356 355 354 353 353 353 352 352 350 348 346 343 340 340 343 345 344 346 348 348 349 350 351 353 353 353 353 353 353 352 353 353 352 352 352 351 351 350 351 351 350 350 349 349 349 348 349 348 349 349 349 350 350 351 351 353 353 352 351 351
323 324 325 326 329 333 337 337 341 346 346 343 341 343 348 345 346 359 362 357 358 357 357 359 357 358 355 353 354 353 353 353 352 352 351 348 348 346 341 341 342 344 345 346 348 349 350 350 352 354 354 354 355 354 353 353 353 353 352 352 352 351 351 350 350 350 350 350 350 349 348 348 348 349 349 350 349 350 351 352 352 353 354 352 352 351
321 322 326 329 328 328 332 334 338 344 344 339 338 341 343 345 348 356 360 358 357 356 356 357 355 356 357 353 352 353 354 354 352 352 351 350 349 346 342 341 341 343 345 345 346 348 349 350 352 354 355 355 356 355 353 353 354 354 353 353 353 352 352 351 351 351 351 351 351 349 349 348 348 350 350 350 350 350 351 352 354 354 353 352 352 351
315 321 327 328 327 326 328 328 334 338 337 336 336 332 334 340 339 341 352 359 359 357 357 358 355 355 358 354 352 354 353 355 354 354 353 351 350 348 343 341 341 343 346 345 344 346 348 350 351 353 354 355 355 355 353 353 354 354 354 355 354 353 353 352 351 351 351 352 351 350 350 350 350 351 352 351 351 351 352 353 354 354 353 353 352 352
317 324 328 328 326 327 326 326 329 330 329 334 335 330 329 336 336 338 350 358 358 357 360 357 345 347 357 357 355 354 353 354 354 353 354 352 350 348 343 341 342 343 345 346 344 344 347 349 350 352 354 355 356 355 354 353 353 353 355 355 354 354 354 353 352 351 351 351 351 351 350 351 352 352 353 352 352 353 354 354 354 354 353 353 353 352
321 324 325 327 328 327 326 326 327 326 324 325 330 330 327 332 341 346 352 352 345 344 354 354 338 339 353 358 357 354 354 354 354 354 353 352 352 349 346 342 342 343 343 345 345 344 347 348 350 352 353 354 355 356 356 353 352 352 355 355 354 355 354 353 353 351 351 351 351 350 350 350 351 352 352 353 352 353 353 353 354 354 354 353 352 353
321 323 324 326 327 327 327 326 326 327 321 318 324 329 330 336 343 346 349 345 336 338 353 355 343 342 348 352 357 355 355 356 354 355 354 353 352 349 347 344 342 343 342 343 345 344 345 347 350 352 352 353 354 355 356 354 352 351 354 355 355 355 354 353 352 352 352 352 351 351 350 349 350 351 353 354 352 352 353 353 354 355 354 355 354 354
321 323 323 324 325 326 325 323 326 327 320 318 326 331 334 338 340 343 346 340 337 344 352 352 350 343 338 347 358 355 355 357 355 355 354 354 353 349 347 345 342 342 342 343 343 344 345 348 349 350 351 352 352 354 355 354 353 353 354 355 356 355 354 353 354 353 353 352 352 351 349 349 350 351 353 354 353 353 353 354 354 355 356 357 357 356
321 321 322 323 322 322 323 324 326 326 323 325 332 332 334 337 334 338 343 339 341 342 338 341 348 339 332 344 358 356 355 357 356 355 355 353 353 350 348 344 343 342 341 341 342 344 346 348 348 350 350 350 350 354 355 356 354 353 355 355 355 355 354 354 355 354 354 353 353 352 350 350 350 349 351 352 353 353 354 354 355 357 356 358 358 358
320 319 321 322 321 320 321 324 324 324 325 329 333 333 332 334 334 338 342 339 339 337 330 334 342 336 329 337 351 354 353 355 356 356 354 353 353 352 349 346 343 342 341 342 341 344 346 346 347 348 349 350 350 353 354 355 355 354 354 354 354 355 354 355 355 354 354 354 354 353 352 351 350 350 350 350 351 354 355 355 355 357 358 357 357 358
319 319 320 320 321 322 322 323 321 321 326 331 333 334 334 336 339 342 339 336 335 332 327 329 338 336 329 332 345 354 353 354 358 356 353 351 352 352 350 347 343 343 342 342 342 344 345 346 347 348 350 350 350 353 354 355 356 355 353 353 354 354 354 354 355 355 354 354 354 353 352 352 351 351 351 351 352 353 355 355 354 355 356 356 356 356
321 319 320 319 320 322 321 323 323 322 326 331 332 333 332 333 338 338 335 335 332 328 328 332 341 340 330 331 344 355 353 351 357 358 354 351 351 353 351 347 345 343 343 344 343 344 345 347 348 348 349 351 352 354 354 354 356 356 353 353 355 354 353 354 354 354 354 354 353 353 353 352 352 351 351 351 351 353 353 354 355 355 355 355 355 356
319 320 320 319 319 320 321 320 322 325 326 329 329 329 326 327 334 336 335 333 327 328 336 341 344 341 333 337 347 352 351 349 353 356 352 350 351 352 351 349 347 345 345 344 344 344 344 346 349 350 350 353 354 355 355 354 355 356 354 354 355 355 354 353 354 355 354 354 354 353 353 352 352 352 351 351 351 351 352 353 354 354 354 355 354 355
314 319 321 320 319 320 319 318 318 321 326 326 325 324 322 327 333 333 330 327 325 331 341 345 346 339 333 340 349 351 349 349 350 352 350 350 350 351 352 350 348 347 345 345 345 344 345 348 350 351 353 355 356 355 354 353 355 356 356 355 355 356 355 354 354 354 354 354 354 354 353 353 353 352 350 350 349 349 351 352 352 352 352 353 353 353
311 314 318 320 319 319 319 319 320 323 326 326 327 327 320 322 326 325 323 323 324 331 338 343 343 333 328 341 353 351 350 348 347 350 349 349 350 350 351 351 349 347 346 345 345 344 345 349 352 352 353 355 356 355 353 353 354 356 357 357 355 356 356 355 355 355 354 355 354 354 353 353 352 351 350 349 348 348 349 350 351 351 350 349 350 352
310 311 319 320 320 320 318 319 322 323 322 324 326 325 319 320 322 321 322 324 324 328 333 337 336 331 334 348 353 351 351 350 348 349 350 350 351 351 350 352 351 348 346 346 345 346 346 350 351 351 354 355 355 355 353 353 356 356 357 358 357 357 357 355 355 356 355 355 354 354 353 353 352 351 350 350 351 350 349 348 349 350 350 348 347 351
310 311 320 320 319 322 320 318 322 320 318 322 323 320 322 327 324 319 320 324 327 326 327 329 329 330 335 343 350 353 353 353 351 349 349 350 351 352 351 352 353 349 347 347 346 347 347 349 351 351 353 354 355 355 354 355 357 357 358 358 357 357 357 356 356 356 355 356 355 354 353 353 352 351 350 351 351 350 349 349 349 348 348 348 348 349
314 313 319 322 319 320 321 319 322 321 321 323 320 320 326 331 327 325 324 327 333 332 327 325 325 324 325 333 349 357 354 355 354 350 351 352 352 353 352 352 353 350 349 348 348 347 348 349 350 351 352 353 354 354 354 357 359 358 357 357 357 357 358 357 356 356 356 356 356 355 354 352 352 351 350 350 349 349 348 349 349 348 347 347 348 348
319 313 317 324 323 321 323 320 319 322 326 325 323 325 327 324 321 324 325 328 336 335 326 323 325 321 320 330 346 352 353 354 353 352 353 352 353 355 354 354 353 351 349 349 348 347 348 349 350 352 352 351 353 354 354 357 359 358 357 356 356 357 357 357 356 355 355 356 356 355 353 353 352 351 351 350 349 349 349 348 348 347 347 347 348 349
321 314 315 326 329 325 324 320 317 320 326 327 327 329 327 323 322 323 325 326 330 331 325 323 323 321 327 343 352 354 357 356 353 354 354 352 354 355 354 355 354 351 350 350 349 348 348 349 351 352 352 350 352 353 354 356 357 357 356 356 356 356 356 356 356 356 356 356 354 353 353 353 352 352 351 351 350 349 349 349 348 347 347 348 348 350
322 318 314 322 328 323 321 321 318 321 323 321 322 323 324 326 326 328 329 326 327 327 326 325 319 319 340 359 360 359 359 358 357 357 356 353 354 355 354 356 357 354 352 351 349 347 349 350 351 352 353 351 351 355 355 356 356 355 355 356 356 356 356 355 355 356 357 356 353 353 353 353 353 353 353 352 352 350 349 349 348 347 347 348 348 350
322 319 315 314 318 320 324 327 325 326 325 321 322 323 324 326 325 326 328 326 325 323 325 329 322 323 347 361 357 360 360 358 359 358 357 356 354 355 355 355 357 356 353 351 349 347 349 353 352 352 354 352 353 356 356 356 356 356 356 356 356 357 357 356 355 356 358 356 353 353 354 353 353 353 353 351 351 350 349 349 349 348 348 348 350 350
325 323 317 313 318 324 328 328 327 329 329 324 327 330 332 328 324 324 326 328 329 324 324 330 324 327 353 360 354 360 359 357 357 357 359 358 354 356 355 353 356 355 351 350 350 348 350 353 353 353 354 354 356 359 359 357 357 356 355 355 357 358 358 357 355 357 359 358 355 354 354 354 354 353 352 351 351 349 348 349 350 350 351 350 350 352
327 325 319 316 320 324 326 327 327 330 331 326 326 331 331 327 326 333 334 331 329 323 321 325 323 330 353 359 355 358 357 356 357 356 359 358 355 356 356 357 358 355 351 349 351 353 353 354 354 355 355 355 357 359 360 359 358 356 355 356 358 360 359 357 356 357 359 359 356 355 354 354 354 354 352 351 350 350 349 348 350 352 353 353 353 355
322 324 321 317 320 321 321 324 325 327 329 328 329 332 333 333 331 333 333 327 323 319 319 322 321 330 351 358 355 356 355 355 357 356 357 358 356 356 357 359 358 354 352 350 349 352 353 355 357 357 357 358 359 360 361 361 359 358 358 359 360 361 360 359 358 358 360 360 358 355 353 354 354 354 353 352 351 351 350 349 351 353 355 356 356 357
320 327 326 318 320 322 320 322 326 329 329 327 330 332 335 338 333 326 324 320 319 319 321 320 319 330 350 358 355 355 355 355 357 356 356 357 356 356 356 356 356 355 354 353 351 351 352 355 358 359 358 358 360 362 363 362 362 360 361 361 362 362 361 360 360 360 361 360 359 357 355 354 354 354 354 354 352 351 351 350 351 355 357 357 357 357
327 330 329 322 322 326 326 329 336 336 330 327 331 332 334 337 337 329 321 319 321 321 321 326 328 329 342 354 354 354 356 356 356 355 356 356 356 356 356 355 355 355 355 354 353 352 353 355 358 361 360 359 361 361 363 364 362 362 364 363 364 364 362 362 362 362 362 361 359 358 357 356 355 354 353 353 352 350 351 350 351 355 357 358 357 357
330 326 329 331 329 332 335 336 339 338 334 335 337 338 338 339 338 328 320 323 331 321 319 338 347 336 341 354 354 354 358 358 356 355 355 355 355 355 356 356 355 355 355 355 354 353 354 355 358 361 360 360 361 361 363 364 363 363 365 364 366 365 363 363 364 364 363 362 360 360 359 358 356 356 354 354 353 350 350 351 352 355 357 357 356 357
330 324 330 336 332 334 338 336 336 337 336 338 340 338 339 339 337 329 324 331 337 324 323 345 353 344 348 355 353 355 358 357 356 355 354 353 353 353 355 355 355 355 356 356 355 355 355 355 357 360 361 361 360 361 362 364 364 365 365 365 366 366 365 365 364 363 362 363 363 362 361 360 359 359 358 356 356 354 353 352 353 356 357 357 357 356
326 325 333 335 332 335 336 332 333 333 332 336 338 338 340 341 339 336 335 340 340 333 338 350 352 350 354 353 353 355 355 355 355 354 352 353 353 354 354 355 356 355 355 355 355 356 355 355 357 358 359 359 360 360 361 362 363 363 363 363 364 364 363 364 364 363 362 362 362 363 363 362 362 362 361 360 360 358 356 355 356 357 357 358 358 357
325 325 332 334 330 332 334 333 331 331 333 335 337 340 343 344 345 342 341 344 342 341 347 349 346 350 353 353 355 354 354 356 356 355 354 353 353 354 354 354 355 355 354 353 354 354 354 354 356 357 357 358 359 359 359 359 360 361 361 362 361 361 361 362 362 362 361 361 360 362 364 364 364 363 362 362 362 360 359 357 357 358 359 359 359 360
323 324 332 333 326 326 332 333 329 329 333 334 335 339 344 344 346 346 345 346 343 343 346 343 340 346 352 353 353 354 355 356 356 356 356 354 353 354 353 354 353 353 353 352 352 352 352 351 353 355 356 356 357 358 358 359 359 360 361 361 361 360 360 361 360 359 358 357 356 359 362 362 363 363 363 363 363 362 361 359 359 359 361 361 360 360
325 326 330 328 322 323 329 330 328 330 333 334 335 338 343 345 347 347 348 350 348 346 346 341 342 349 353 352 354 355 355 355 354 354 353 353 354 354 353 354 353 352 352 352 351 351 351 351 352 352 353 354 355 356 357 358 358 359 359 359 359 358 357 357 355 352 354 355 354 357 359 358 359 361 361 362 362 363 363 361 360 360 361 361 361 361
326 326 328 326 323 323 326 326 325 325 328 332 334 337 343 346 347 348 348 349 350 350 348 348 350 353 353 352 354 353 352 351 349 347 347 349 351 351 351 350 350 350 350 350 350 350 350 351 350 350 351 352 353 355 356 357 357 357 356 357 357 355 354 353 350 350 353 356 355 356 357 356 357 358 359 361 360 361 362 362 362 360 360 363 363 362
325 324 327 326 322 321 323 322 319 320 326 333 336 339 341 342 345 348 349 351 351 351 351 352 352 352 352 352 351 350 349 348 345 344 344 344 345 347 347 346 347 347 346 347 348 348 349 350 350 349 350 350 350 351 351 352 353 353 354 354 354 353 353 352 352 353 355 355 354 355 355 356 354 354 358 360 360 359 360 361 361 361 361 362 361 358
324 323 324 323 320 319 319 317 319 325 333 337 338 338 339 339 341 343 344 349 351 348 350 354 353 352 351 350 348 349 348 348 345 344 343 342 342 343 343 344 344 345 344 344 344 344 346 347 349 349 348 346 346 346 346 347 347 347 349 348 349 349 350 350 351 353 355 354 354 353 351 350 350 353 358 359 358 358 359 358 360 360 359 359 357 355
324 323 322 320 320 319 315 314 321 327 328 331 336 337 337 338 340 339 340 345 348 346 347 352 353 351 350 350 349 348 347 347 348 345 341 340 340 340 341 342 342 342 344 344 343 343 344 344 346 348 348 346 345 344 345 345 344 344 345 346 346 346 346 347 348 351 353 353 353 352 350 350 351 353 357 358 358 358 358 357 356 356 357 356 355 354
324 326 324 319 318 319 316 315 320 319 320 328 337 337 335 336 338 339 338 341 347 346 343 346 350 351 351 350 349 348 347 350 350 346 341 339 339 339 340 341 342 343 343 343 343 344 344 344 345 346 348 348 347 345 344 345 345 345 345 346 346 347 347 347 348 350 351 350 350 350 351 352 351 352 354 356 356 356 356 355 354 354 354 354 354 352
323 325 326 321 316 317 316 315 316 316 322 334 339 336 334 334 337 339 334 336 346 348 344 346 349 350 351 349 348 349 350 351 350 345 340 339 339 339 340 341 341 342 342 342 343 342 343 344 344 345 347 349 349 347 346 345 345 345 345 346 346 348 349 349 349 349 349 348 348 349 350 350 350 349 351 352 353 352 353 353 352 352 352 352 352 351
323 324 324 318 314 315 316 315 315 320 330 339 338 335 335 335 337 335 329 333 343 347 345 348 349 349 349 348 349 350 349 349 348 344 339 338 339 339 339 340 340 341 341 342 341 341 342 343 343 344 345 346 348 349 347 346 345 345 344 345 346 347 348 347 347 348 348 347 348 347 347 347 348 348 348 349 350 350 351 351 351 351 351 351 351 350
322 323 321 318 315 315 315 314 315 324 336 339 336 336 336 335 334 331 330 337 344 344 344 346 347 347 346 346 347 347 345 344 343 340 338 337 337 337 338 339 339 340 340 341 340 341 341 341 342 342 343 343 345 347 347 347 347 346 346 346 346 347 347 347 347 347 347 346 346 345 345 346 346 346 347 348 348 349 349 350 350 350 350 350 349 347
319 320 320 319 316 316 318 316 315 324 337 340 337 336 334 333 332 332 337 343 343 342 343 345 345 346 345 344 345 344 342 341 340 338 337 335 335 336 337 338 338 338 339 340 340 341 341 341 340 341 341 342 343 345 346 347 347 347 347 347 347 347 347 346 346 345 345 345 344 344 344 344 345 346 347 347 348 348 348 349 349 349 349 349 348 346
322 319 316 317 320 320 319 317 315 322 335 338 336 335 335 336 337 339 341 341 340 340 342 343 344 345 343 343 343 341 340 340 338 336 335 334 335 337 337 337 337 337 337 337 338 339 339 339 339 339 340 340 341 342 344 344 344 344 344 345 345 346 345 345 345 344 344 344 343 343 344 344 345 345 345 346 346 346 346 347 347 347 348 348 346 344
327 322 317 320 325 321 317 320 325 331 337 337 337 338 339 339 340 341 340 340 339 338 339 341 344 343 342 342 342 340 340 339 336 335 334 334 335 336 337 337 336 336 337 336 337 337 338 338 337 337 338 339 339 340 341 341 341 341 341 341 342 343 345 345 344 344 344 343 343 343 344 344 344 344 344 344 344 345 345 345 345 345 345 344 343 340
330 332 328 327 330 327 326 332 337 338 337 336 337 340 339 338 339 339 339 339 338 337 338 340 342 341 341 341 339 338 338 337 335 334 333 332 333 335 336 336 336 336 336 335 335 336 336 336 336 335 336 337 338 338 339 339 339 339 339 340 340 341 342 342 342 342 341 342 343 343 343 343 343 342 343 343 343 343 343 342 342 341 340 339 338 336
334 336 333 333 333 333 334 337 339 338 337 337 336 336 336 336 338 338 337 338 338 338 338 338 339 341 341 339 337 336 335 332 332 333 332 330 330 332 335 335 335 335 336 335 335 334 335 335 335 334 335 336 336 337 338 338 338 338 337 338 338 338 338 339 339 339 338 338 339 340 340 340 340 340 340 340 340 340 339 339 338 337 336 336 335 334
334 333 332 334 334 333 334 338 339 338 338 337 336 335 335 335 337 338 338 338 339 338 338 338 338 340 339 336 335 334 332 331 331 331 331 330 328 330 333 334 334 334 334 335 335 335 334 334 334 333 334 334 334 335 336 336 336 336 336 336 336 337 337 338 338 338 338 337 337 337 337 337 337 337 337 337 337 337 337 337 336 335 335 334 334 333
333 331 331 333 334 335 337 339 339 337 337 337 336 336 336 336 337 338 338 338 338 338 338 339 339 338 335 335 334 333 332 331 330 330 330 329 328 329 331 332 333 333 332 333 335 335 334 334 334 334 334 334 334 334 334 334 335 335 335 335 334 335 336 337 336 336 337 336 336 336 336 335 335 334 334 334 334 334 334 334 334 334 334 334 333 332
332 331 332 333 332 334 336 338 338 338 338 338 337 337 337 338 338 338 337 337 337 337 338 339 339 336 334 334 335 334 333 332 331 330 328 328 328 328 328 328 329 329 329 331 333 333 334 333 333 333 333 333 333 333 334 334 334 335 336 335 334 334 335 335 335 335 335 335 335 335 334 333 332 332 331 331 331 331 331 331 332 332 333 333 333 333
330 329 331 331 329 330 334 337 338 338 338 337 337 337 338 337 337 338 337 337 337 337 338 338 336 333 332 333 334 332 332 331 331 330 328 328 329 329 327 327 327 326 327 328 329 330 331 331 332 332 332 332 333 333 333 333 333 334 335 335 335 335 335 334 334 334 334 334 334 334 334 333 332 331 330 329 329 329 329 329 330 330 331 331 331 332
330 330 331 329 329 332 336 337 337 337 338 337 336 337 338 337 338 338 338 338 337 337 337 337 335 333 332 332 331 331 330 330 329 328 328 329 330 329 328 327 328 328 328 329 330 330 331 330 330 331 330 330 331 331 331 332 332 332 333 334 334 334 333 331 330 330 332 334 334 334 334 333 333 333 332 331 331 330 329 330 330 331 331 330 330 329
Wind_Speed
7 7 8 8 7 6 7 7 6 3 3 4 3 2 1 2 3 4 3 3 2 4 3 2 1 2 5 7 8 7 8 9 9 10 9 9 9 10 10 11 11 11 10 13 14 13 13 13 12 12 11 11 11 12 13 13 13 13 13 13 13 12 12 12 11 10 10 10 10 10 10 10 9 9 8 7 7 7 7 7 6 5 4 4 4 3
6 8 9 7 2 1 4 6 6 5 4 4 4 3 3 3 1 3 2 3 2 3 3 3 2 3 4 5 7 8 9 11 10 10 11 11 10 9 10 12 12 11 10 12 13 12 13 13 13 12 12 12 13 13 14 14 13 13 13 14 14 13 13 12 12 11 11 10 10 10 10 10 10 9 8 7 7 6 7 7 6 5 4 4 3 4
7 9 9 5 2 0 3 4 5 5 5 4 4 2 3 1 1 3 3 3 2 2 3 6 4 3 4 3 6 9 9 10 9 10 10 11 11 10 10 11 13 12 10 11 12 13 14 14 14 13 12 13 13 14 14 14 14 13 13 14 14 14 14 13 12 12 11 11 10 10 10 10 10 9 8 7 7 7 7 7 6 5 4 4 4 5
7 7 6 6 2 4 4 4 5 4 5 5 4 2 2 2 4 0 3 3 2 3 1 2 4 4 5 3 6 9 9 8 8 9 8 10 10 11 11 11 13 13 11 11 11 13 14 14 14 13 13 13 13 14 14 15 15 14 14 14 14 14 14 13 13 12 11 11 10 10 10 9 8 8 7 7 7 7 7 7 6 5 5 5 5 6
4 2 3 5 5 7 5 4 6 6 6 6 5 3 2 3 3 3 3 3 2 3 2 3 5 6 7 7 7 9 10 9 9 10 9 10 10 11 11 11 13 13 12 11 11 12 13 14 14 13 13 14 14 14 15 16 16 15 15 15 15 14 14 13 13 12 12 11 11 10 11 9 8 8 8 8 8 8 7 7 6 6 6 6 6 7
3 5 3 6 7 7 7 6 6 6 6 6 5 2 2 1 0 2 2 3 4 4 5 6 6 4 8 10 9 8 10 11 10 11 11 11 11 11 11 11 13 13 12 12 11 11 13 14 14 14 14 14 15 15 15 16 15 15 15 16 15 14 14 13 13 13 12 12 11 11 12 11 10 10 9 9 9 9 8 8 8 7 7 7 7 7
2 5 5 7 7 8 8 7 5 4 7 4 6 7 2 2 1 2 1 3 3 1 3 6 5 2 3 7 10 10 11 13 12 12 13 12 12 12 11 11 12 13 13 12 11 12 13 14 14 14 15 15 15 15 15 15 15 15 15 16 16 15 14 14 14 14 12 12 12 11 12 11 11 10 10 9 8 9 8 7 8 8 8 7 7 7
4 6 6 6 8 9 8 8 6 6 8 1 7 6 6 2 1 0 1 1 4 2 2 6 6 3 3 5 10 13 12 12 13 14 14 13 13 14 13 13 13 14 14 12 12 12 13 14 14 14 15 15 15 15 16 15 16 16 16 17 16 15 14 14 15 15 13 12 12 12 11 10 10 10 9 8 7 7 7 7 7 8 8 7 6 6
7 10 9 9 9 7 8 8 5 7 8 1 6 3 5 6 2 4 2 2 4 5 5 6 6 5 3 5 9 12 13 12 14 15 15 15 15 15 15 15 15 15 14 13 13 13 13 14 14 15 14 15 15 16 16 16 16 17 16 17 16 16 15 15 16 16 14 13 13 12 11 10 9 9 9 9 8 7 7 7 7 6 7 7 6 6
5 8 8 10 9 7 8 5 2 7 7 3 5 4 5 6 5 4 3 3 4 7 6 6 9 5 3 6 8 9 10 11 12 13 15 16 16 16 15 16 16 15 14 14 13 13 15 15 15 15 14 14 15 16 17 16 16 17 17 17 17 17 16 16 17 16 15 13 12 12 11 11 10 9 10 9 8 8 7 7 7 6 6 7 7 6
3 4 5 8 10 8 5 3 2 7 5 4 5 6 4 4 4 2 3 2 4 6 6 6 11 7 5 4 8 8 9 12 11 11 14 17 17 17 16 15 16 15 13 13 13 14 16 17 16 14 13 14 15 16 17 17 17 17 18 18 18 17 17 17 18 17 15 14 13 12 11 11 11 10 10 10 9 9 7 7 7 7 6 6 7 7
7 8 6 7 9 7 4 4 5 6 6 6 7 6 5 4 4 2 4 4 6 5 1 2 7 9 7 2 6 8 10 12 12 12 17 20 20 18 16 16 16 15 14 14 13 13 15 15 15 14 14 14 15 17 18 18 17 18 18 19 19 18 18 18 18 18 16 15 13 13 12 12 11 11 11 10 10 9 8 8 7 6 6 6 6 6
8 10 9 9 9 9 9 7 6 6 8 8 7 7 7 5 3 3 5 5 6 3 2 1 4 7 8 6 7 9 10 11 12 13 17 20 20 19 17 17 15 14 14 14 13 13 12 12 14 15 15 16 17 18 18 18 18 18 19 20 20 19 19 18 19 18 17 16 14 13 13 12 12 11 11 11 10 10 9 8 8 7 8 7 7 7
5 8 11 10 9 11 12 8 6 7 8 9 8 8 8 5 4 6 6 5 5 1 2 2 4 5 8 6 7 8 9 11 13 14 17 18 20 20 18 17 16 15 15 13 13 13 11 12 15 16 16 17 18 19 19 19 18 18 19 21 21 20 20 19 19 19 18 16 15 14 13 13 12 12 12 11 11 11 10 9 9 9 9 9 9 9
4 5 10 11 8 12 15 11 8 7 7 9 8 8 8 7 6 6 5 5 5 2 4 5 4 5 4 3 3 1 2 7 11 13 14 15 17 18 18 17 16 16 15 13 13 13 13 15 17 17 17 18 18 19 19 19 19 19 19 21 22 21 21 20 20 19 18 17 16 15 14 13 12 12 12 11 10 10 10 9 9 8 8 9 9 9
6 2 7 10 5 11 17 13 10 9 7 8 7 8 9 7 7 5 4 4 6 4 4 5 4 4 2 2 5 6 5 5 8 11 13 13 14 15 16 16 15 15 15 14 13 13 14 17 18 17 18 18 18 18 19 19 20 20 20 21 22 22 21 21 21 20 19 18 16 16 16 14 13 12 12 12 11 11 10 10 9 9 8 9 8 8
5 1 6 8 6 10 15 12 12 11 6 5 6 8 8 6 6 6 5 4 6 7 5 5 6 5 3 3 4 7 8 6 6 9 12 12 13 15 15 15 15 15 15 14 13 13 15 17 18 18 18 18 18 19 19 20 21 21 20 21 22 22 21 21 21 20 19 18 17 17 17 16 14 14 13 13 12 12 11 10 10 10 9 9 9 9
4 2 4 7 8 10 11 11 14 13 6 4 6 8 7 5 4 4 4 3 4 7 5 5 6 5 3 3 2 5 7 7 7 8 10 11 13 14 15 15 16 16 15 14 14 14 15 17 18 18 18 18 19 19 21 21 21 20 20 21 22 23 22 22 22 21 20 19 18 18 18 17 16 15 14 13 12 12 12 11 11 10 10 10 10 9
2 4 4 3 3 6 8 9 11 10 8 7 5 5 7 6 6 6 4 3 4 6 5 5 6 4 2 0 3 4 3 5 7 7 8 11 13 13 13 15 17 17 15 14 14 13 13 16 19 19 18 19 19 20 21 21 20 19 20 20 22 23 22 22 21 20 19 19 18 18 19 19 17 16 15 14 13 12 12 12 12 11 11 10 10 9
2 4 2 3 4 3 8 9 9 9 9 9 6 5 6 5 5 5 4 4 4 5 5 5 5 2 1 4 5 4 3 1 4 7 7 9 11 11 11 12 14 15 14 13 13 13 13 16 19 19 19 19 20 19 19 20 19 19 19 20 21 21 22 22 21 20 19 19 18 17 18 19 18 17 16 15 14 13 13 13 13 12 12 11 10 10
3 4 2 2 0 3 6 7 8 8 9 9 7 7 8 5 3 3 3 5 6 5 4 4 5 2 3 4 5 5 5 5 2 3 4 5 9 10 10 9 9 10 12 12 13 12 13 17 18 19 19 19 18 18 19 20 20 20 19 19 20 21 21 22 22 21 20 20 19 18 19 19 19 18 17 16 15 14 14 13 13 13 12 12 11 11
3 3 4 3 2 4 6 6 6 6 8 10 7 7 8 6 5 5 5 5 7 7 3 3 4 2 4 3 4 5 5 5 4 1 2 3 7 8 9 9 8 7 8 10 12 13 13 15 18 18 18 17 17 18 19 19 19 19 19 18 19 20 21 21 21 21 20 20 19 20 20 20 19 19 18 17 16 15 15 14 14 13 13 13 12 12
1 3 4 4 2 2 5 8 8 6 7 8 7 6 6 6 5 5 4 4 6 8 5 3 4 1 4 3 4 5 5 6 5 3 3 2 3 4 6 8 8 9 8 8 9 11 12 15 17 17 17 18 18 18 18 18 18 19 20 19 18 19 20 21 21 20 19 19 19 20 20 20 20 19 19 18 17 17 16 15 15 14 14 14 13 13
1 1 2 3 3 2 5 6 7 6 7 8 7 6 5 7 7 6 5 4 5 7 5 4 4 1 5 4 4 5 6 7 6 5 5 4 3 2 3 4 5 8 9 8 6 6 9 12 14 15 17 18 18 17 18 18 18 19 19 19 19 19 20 20 19 19 19 19 20 20 20 20 20 20 20 19 18 18 17 16 15 15 14 14 13 12
3 2 3 2 2 3 5 5 6 7 7 5 3 4 3 8 9 7 5 4 5 5 4 4 4 2 3 3 4 6 6 8 8 6 6 5 5 4 4 4 5 7 8 9 8 6 7 9 12 14 16 17 17 17 18 18 18 17 18 19 19 19 19 19 18 19 19 19 19 19 20 20 20 20 20 20 19 18 18 17 16 15 15 14 13 13
3 3 3 3 2 4 4 2 3 3 5 3 1 0 3 9 12 8 4 5 6 4 4 6 4 3 3 3 5 7 6 7 7 7 7 5 4 4 4 5 6 6 6 7 9 9 9 9 11 14 15 16 17 17 18 18 18 17 18 19 19 19 19 18 18 19 19 19 19 19 19 19 19 19 20 19 19 18 18 18 16 15 15 15 14 14
3 2 4 4 3 5 6 2 4 3 2 3 3 3 6 9 13 9 5 4 3 3 3 4 5 1 3 3 4 6 6 6 6 6 7 6 5 4 4 5 6 6 6 6 7 9 11 11 11 14 16 16 16 16 17 17 18 18 19 19 18 18 19 18 18 18 18 18 18 18 19 19 18 18 18 18 18 17 17 17 17 16 15 15 15 15
3 2 3 5 6 8 9 5 8 9 6 7 7 9 10 10 11 9 6 2 2 3 3 2 4 1 2 3 5 6 5 5 5 5 6 5 4 4 3 4 6 7 7 7 7 9 10 11 11 12 14 15 15 16 16 16 16 17 18 18 18 17 18 18 18 18 17 16 17 17 18 17 17 17 17 17 16 16 16 16 16 16 15 14 15 15
4 2 2 5 8 10 11 10 11 11 8 4 5 12 8 2 4 5 6 3 1 6 4 4 4 2 4 4 5 5 4 4 5 4 4 4 4 4 4 4 5 6 7 8 8 8 8 9 9 10 12 14 14 14 14 13 15 15 15 16 17 16 16 15 15 16 16 15 15 16 16 16 15 15 15 15 15 15 15 15 15 15 14 14 14 14
3 1 1 3 5 6 9 11 13 11 7 4 5 11 11 5 3 1 2 2 4 6 2 1 0 3 5 4 4 3 2 3 4 3 4 4 4 4 4 4 4 4 4 5 6 6 6 6 6 9 12 13 13 13 12 11 12 13 14 14 14 14 14 13 13 14 14 13 13 13 14 15 15 14 15 15 15 16 16 15 15 14 14 13 13 12
1 2 2 2 3 3 5 9 12 11 6 4 7 12 12 7 7 4 2 1 3 4 2 3 4 3 3 2 4 2 1 3 4 4 5 5 4 4 3 4 4 3 3 3 3 4 6 5 4 6 10 11 13 14 12 11 10 10 11 12 13 13 14 13 11 10 10 10 12 11 10 12 14 14 15 16 16 16 16 16 15 14 13 12 12 11
3 2 1 4 5 4 6 6 8 11 6 2 2 7 7 3 3 3 2 2 3 3 4 6 5 3 4 3 4 4 3 6 7 7 6 5 5 4 3 4 3 2 3 3 2 3 4 4 5 6 7 8 11 13 12 11 11 9 8 9 10 10 11 10 10 8 7 9 12 13 12 11 12 13 14 15 15 15 15 15 15 13 12 12 12 11
2 1 2 4 5 2 4 5 7 10 6 3 6 7 3 2 1 1 0 0 2 3 3 2 1 4 4 4 5 6 6 7 9 9 9 8 7 6 6 7 7 5 3 1 4 4 3 2 2 5 7 8 10 11 11 12 13 13 11 10 9 9 9 9 8 9 10 12 15 16 16 14 13 13 14 14 15 14 14 14 14 14 12 11 11 10
3 2 3 4 4 3 6 7 7 9 6 2 3 4 2 1 1 1 2 2 2 1 1 2 4 5 5 5 7 8 7 8 9 10 10 10 9 8 9 10 9 8 7 4 2 2 4 4 3 4 6 8 9 10 11 12 13 13 12 11 9 9 8 7 8 11 11 13 15 17 17 17 16 15 14 13 14 14 14 13 13 13 11 10 10 10
4 3 2 4 4 3 5 7 9 7 3 1 2 3 3 2 1 1 0 1 2 1 1 4 5 6 7 8 8 7 6 7 9 10 10 10 10 9 9 10 9 9 8 8 7 6 3 2 5 6 5 6 7 7 8 10 11 12 11 9 7 6 6 6 8 10 11 13 15 15 14 14 16 15 13 12 12 12 13 12 12 11 10 11 13 13
4 4 3 3 4 3 3 6 6 3 2 3 3 3 3 2 1 2 2 3 3 2 1 3 5 6 7 8 7 5 5 7 8 9 9 9 10 9 8 8 9 9 8 7 6 7 6 4 1 5 8 8 8 9 9 8 9 9 8 7 7 7 7 7 8 10 11 12 13 12 12 13 15 15 12 10 10 10 11 11 10 10 10 10 13 15
4 4 3 3 3 3 4 4 2 2 4 5 4 2 2 1 1 1 1 3 5 3 2 2 3 4 7 7 7 5 4 5 6 8 9 9 9 8 8 8 8 8 8 8 7 6 5 5 3 2 6 9 12 14 14 12 11 10 8 9 11 12 11 10 10 10 11 10 10 10 11 12 13 13 9 8 9 9 9 10 10 10 10 10 11 12
3 3 4 4 3 3 5 4 3 3 3 2 4 4 3 3 3 1 1 2 6 6 4 2 2 3 5 6 6 4 2 2 4 6 7 8 9 8 7 7 8 8 8 8 8 7 6 5 3 1 3 8 11 14 14 14 13 12 10 11 12 11 11 12 12 11 11 10 10 9 10 10 10 8 6 6 7 7 8 9 10 10 9 8 8 9
5 4 4 6 5 4 5 5 4 3 1 3 5 5 4 2 3 1 3 2 4 5 6 6 5 4 3 3 3 2 2 1 3 4 6 8 9 8 8 8 8 8 7 7 8 7 7 6 5 3 1 5 9 11 13 13 13 14 13 12 12 11 10 10 11 11 12 12 10 8 8 9 8 6 7 7 6 6 8 9 9 8 7 7 7 6
6 4 5 7 7 5 6 6 3 0 2 4 4 4 3 2 2 3 4 1 2 1 4 4 4 4 3 1 0 1 2 3 4 5 7 9 10 9 9 8 8 8 7 8 8 6 6 7 8 7 5 2 2 7 10 10 11 13 12 11 11 11 10 11 12 12 12 10 8 7 8 9 7 6 7 7 7 7 7 8 7 6 6 6 5 4
5 5 5 7 8 6 6 7 4 1 4 3 3 3 2 2 3 4 1 2 1 1 2 2 3 4 3 1 1 4 6 7 7 7 9 9 9 9 9 9 9 9 9 9 7 7 7 9 10 10 9 8 4 3 7 8 11 12 12 12 12 12 12 12 12 12 10 9 9 9 9 9 7 7 7 7 8 8 7 7 7 6 6 5 4 4
5 5 5 6 8 7 5 6 5 1 3 2 2 2 1 2 2 1 2 2 1 0 2 2 3 5 3 2 5 6 7 8 9 9 9 9 9 9 9 10 11 10 10 10 9 9 10 10 12 12 11 11 8 3 3 6 8 10 11 11 10 11 11 11 10 10 9 8 9 8 7 7 6 7 7 8 8 8 6 6 6 7 7 5 5 5
2 4 6 6 5 6 6 6 6 3 2 1 1 3 2 2 0 2 2 1 1 1 2 2 4 5 4 5 7 8 9 9 9 9 8 8 9 10 10 11 11 11 11 12 12 12 12 12 13 13 13 13 12 9 5 4 4 4 5 3 2 5 7 7 8 8 7 7 6 6 7 7 7 8 8 9 9 7 6 6 6 7 7 6 8 10
1 3 5 3 1 4 6 4 3 1 3 1 1 1 2 2 2 2 1 1 1 1 1 3 4 4 5 7 8 8 9 9 8 8 8 8 9 10 11 11 12 12 12 13 13 14 14 14 14 14 15 15 14 13 12 12 12 12 10 8 4 2 2 3 5 5 5 7 7 7 7 8 9 11 11 11 10 9 8 7 7 7 8 9 12 14
1 1 2 2 1 2 2 1 1 1 2 2 0 2 3 3 2 1 0 1 1 1 1 3 5 6 7 9 9 8 8 9 8 8 8 9 9 10 11 12 12 13 14 14 15 15 16 17 18 18 18 17 17 16 16 15 16 15 13 10 8 7 8 8 8 9 9 10 10 10 10 9 9 10 9 9 8 8 8 8 9 10 11 12 12 12
1 1 1 2 1 1 1 2 3 3 3 3 3 2 3 3 3 2 1 1 2 1 1 3 5 7 9 9 9 8 8 9 9 8 8 9 9 10 11 12 12 14 15 15 15 16 17 18 19 20 20 19 19 18 17 17 17 17 15 12 12 12 13 13 14 14 13 12 11 11 11 12 13 11 10 9 9 9 8 9 10 12 11 11 10 10
2 2 2 2 2 1 3 4 4 4 3 4 4 4 3 4 3 1 1 2 3 3 3 4 7 9 10 10 10 10 10 10 9 9 8 8 9 9 11 11 12 13 15 14 14 15 16 18 18 19 20 19 18 19 19 18 18 17 16 14 14 15 16 17 16 15 14 13 12 12 12 14 15 16 17 16 15 14 13 11 12 13 12 10 10 12
3 4 4 2 3 2 1 4 4 4 3 3 2 3 3 4 3 3 2 3 4 4 5 7 9 10 10 10 10 10 10 10 9 9 8 8 8 9 10 10 11 12 12 13 13 14 16 17 18 18 19 18 18 19 20 19 18 16 16 16 16 16 17 18 18 17 16 15 14 14 14 14 16 18 20 20 19 19 18 16 14 14 13 12 12 13
3 4 2 1 3 3 2 5 6 5 4 4 3 3 3 3 5 5 5 6 7 6 7 10 11 11 11 11 10 10 10 10 9 9 9 8 8 9 10 11 11 11 11 12 12 13 15 16 17 17 18 18 18 19 20 19 18 17 16 17 17 17 17 17 17 17 17 16 15 14 14 14 15 18 20 20 20 20 19 17 14 13 13 13 14 13
4 4 2 2 4 2 2 6 7 4 3 5 5 5 5 5 6 7 7 8 9 9 9 12 13 13 13 12 11 10 10 10 10 11 10 9 10 11 12 11 11 11 11 11 12 13 13 14 14 15 16 16 15 16 17 17 17 17 16 15 15 15 15 15 16 15 15 14 14 14 14 13 13 14 16 18 19 19 18 17 14 13 13 13 13 13
3 2 2 2 1 2 3 5 5 2 3 6 7 6 6 6 7 8 9 9 10 10 11 13 14 13 12 11 12 12 10 10 12 12 12 11 12 12 12 12 12 12 12 11 12 12 12 12 13 13 13 13 12 13 13 14 13 13 13 13 12 12 12 13 13 13 12 12 12 12 12 12 12 12 12 13 14 16 16 16 15 14 13 12 12 11
Wind_Direction
200 204 208 222 230 207 210 240 269 322 311 289 256 220 339 50 103 103 128 129 171 210 180 198 265 135 167 175 180 184 189 201 197 180 177 183 179 175 178 169 169 184 174 158 158 155 152 152 152 153 155 157 158 157 158 161 163 164 164 161 161 164 163 163 164 163 160 157 153 154 154 151 150 149 149 150 148 146 142 143 147 144 148 160 160 152
202 222 216 212 244 191 207 238 268 281 263 269 253 188 63 25 71 86 107 139 198 240 173 171 187 151 171 183 183 188 198 206 201 186 181 186 185 184 184 172 171 184 174 161 161 160 160 156 155 157 157 161 161 162 165 167 167 167 166 165 164 167 169 170 169 168 166 164 162 161 160 156 154 157 159 159 159 155 151 157 156 150 158 161 158 158
201 230 219 175 88 95 214 236 243 256 256 259 252 195 81 357 275 91 114 146 174 252 184 173 188 171 170 201 201 196 204 212 205 194 187 186 187 189 188 177 176 182 178 171 167 168 168 162 160 161 161 165 165 166 170 168 169 170 168 167 167 169 171 174 173 171 171 169 167 166 164 160 157 162 165 160 163 162 157 163 161 158 165 160 156 160
205 222 198 145 149 220 208 221 228 226 234 245 248 219 128 226 264 120 138 146 185 258 260 185 206 194 170 198 222 209 209 215 209 204 200 194 192 192 193 185 181 182 181 181 177 174 172 167 167 167 166 167 167 170 171 171 172 173 172 169 169 171 171 175 176 174 172 167 166 166 163 159 154 159 160 158 164 167 162 164 165 164 162 151 149 155
217 96 122 153 193 230 221 210 227 230 220 218 223 224 135 183 272 353 106 141 204 225 240 239 229 206 177 181 206 207 206 213 210 206 205 202 199 197 197 192 189 186 184 188 187 180 175 173 172 171 171 170 171 173 173 175 177 176 174 171 171 172 171 174 175 173 169 165 163 162 162 159 152 157 163 166 169 167 168 168 164 162 157 148 147 154
207 95 151 200 199 221 233 220 217 238 239 208 183 157 10 291 54 55 131 187 213 196 193 217 238 214 175 180 194 194 196 205 209 207 204 202 199 201 201 196 194 190 188 194 193 186 181 177 175 173 177 177 174 175 176 177 178 177 174 171 173 173 171 172 173 172 169 167 166 165 167 167 163 167 172 176 172 167 169 167 156 153 151 149 150 156
182 125 182 214 209 214 230 233 205 225 254 220 129 121 156 273 94 118 162 244 255 175 164 210 238 248 182 195 197 193 199 201 204 210 208 204 199 200 203 200 198 194 192 196 196 193 187 181 179 178 182 183 178 176 177 177 177 177 174 172 173 173 172 170 171 173 171 170 171 173 176 175 173 173 172 177 172 164 164 156 150 150 151 152 153 157
184 174 185 205 218 215 223 231 195 211 250 218 96 124 157 149 30 11 150 271 287 298 195 212 228 263 249 199 183 187 201 201 202 211 211 208 205 203 204 203 200 198 195 194 196 198 193 186 185 185 185 186 181 175 175 176 175 175 176 175 174 174 173 170 171 174 175 175 175 178 181 180 181 177 170 173 169 160 157 152 151 151 152 154 153 154
183 204 199 201 219 220 224 230 186 208 243 102 94 122 130 134 199 274 221 206 268 264 237 203 200 250 240 164 166 182 195 200 203 210 212 209 207 205 205 203 202 202 200 197 196 197 196 193 192 190 187 186 181 174 173 174 173 173 176 176 176 175 174 172 173 174 177 178 177 180 182 180 183 179 170 170 166 160 160 158 155 150 155 160 156 153
179 217 216 211 220 222 223 229 182 225 241 123 129 156 128 146 188 262 255 215 245 254 258 206 189 238 255 164 167 179 194 203 201 206 212 212 209 207 207 204 202 202 201 201 199 196 196 198 198 194 189 185 180 173 172 172 171 173 175 177 179 178 176 176 175 176 179 178 179 182 182 178 177 175 172 170 168 165 165 167 164 157 162 166 164 162
156 193 232 225 229 237 220 173 185 245 240 147 171 188 166 159 162 241 254 237 252 246 257 219 193 224 270 183 171 184 201 201 189 194 208 210 210 209 206 204 202 200 200 202 200 197 197 198 200 196 188 184 178 171 172 172 171 174 175 177 181 181 180 179 178 179 180 180 182 185 183 180 176 174 172 172 173 171 169 172 169 167 171 172 172 171
191 194 212 216 226 235 210 180 192 220 212 194 205 202 198 183 156 223 227 212 246 238 246 227 194 216 250 207 174 194 202 196 181 187 202 205 205 205 204 203 202 200 199 201 202 199 198 198 199 196 187 181 175 172 175 175 172 174 175 177 181 183 183 182 182 183 183 183 185 187 187 185 182 180 179 178 179 177 176 178 173 172 177 180 183 184
205 206 205 203 205 207 209 205 192 195 201 209 214 206 212 207 177 233 225 210 239 216 92 96 187 222 249 252 239 220 205 198 186 187 201 204 200 199 201 199 200 202 201 200 202 202 199 195 196 194 184 178 175 175 178 178 174 173 175 177 181 184 185 185 186 187 188 188 188 189 190 189 189 190 189 187 186 183 182 184 180 180 184 187 193 194
201 195 194 195 188 199 214 214 193 192 200 209 213 207 214 216 206 229 224 222 243 183 126 172 183 237 253 248 251 240 215 204 193 190 200 203 199 195 197 197 196 200 202 202 201 201 199 191 191 191 184 179 179 179 181 180 177 174 175 178 181 185 186 186 188 189 191 192 192 192 192 191 194 194 194 194 193 190 188 189 188 189 191 192 195 197
247 199 180 187 182 187 206 221 211 194 196 212 219 216 223 225 220 232 229 231 249 190 159 171 184 246 255 125 124 148 194 203 199 194 196 202 201 195 193 195 196 196 199 203 201 200 198 191 189 188 185 185 183 181 183 181 178 177 176 178 182 185 186 187 189 190 192 193 194 195 195 195 196 197 197 196 196 195 194 194 194 196 199 198 198 198
264 278 156 180 185 180 199 216 210 203 205 208 210 213 225 231 222 239 273 273 282 274 192 183 215 256 269 125 151 150 136 167 198 196 191 196 199 196 192 192 195 196 195 200 202 201 198 192 189 188 187 188 185 183 184 181 179 180 179 179 182 185 186 188 189 190 192 194 193 195 197 197 197 199 199 197 197 197 197 198 197 199 202 202 201 199
251 309 137 177 194 191 205 207 195 209 215 180 203 217 222 239 234 239 262 269 280 273 232 203 232 243 238 242 201 174 165 156 174 194 193 190 189 192 192 189 192 195 193 196 200 201 199 194 191 190 190 189 186 184 185 183 182 182 180 180 183 185 187 188 190 191 191 193 193 194 197 198 198 200 201 199 199 198 197 199 201 203 202 201 202 202
260 281 146 185 204 196 213 214 199 212 225 193 215 209 197 225 233 232 261 277 268 256 226 207 235 243 237 238 166 165 183 172 169 188 191 187 186 189 191 190 190 191 190 193 197 200 200 196 193 192 192 191 188 186 186 184 182 181 181 183 184 186 188 188 189 191 190 191 193 193 195 198 199 201 202 202 201 201 200 200 203 204 201 201 201 200
265 252 162 182 239 181 196 219 205 204 222 241 250 195 186 214 206 200 233 258 258 252 224 203 228 246 253 320 98 119 174 179 165 168 183 190 189 188 190 191 189 189 187 189 194 198 200 197 194 193 193 192 189 189 188 184 182 182 183 186 188 188 189 189 190 191 190 191 193 193 194 196 199 201 203 203 204 205 204 202 203 204 202 202 200 200
254 252 162 39 341 196 191 209 205 193 204 233 254 207 195 225 213 202 232 240 250 266 244 206 206 214 30 26 36 49 35 35 148 156 177 199 197 189 191 193 191 189 188 186 191 195 197 200 196 192 193 193 191 190 188 184 184 185 184 186 189 189 189 191 191 190 191 194 195 193 192 194 197 200 201 201 204 204 204 203 204 203 203 203 203 204
225 251 216 128 28 236 208 202 208 204 194 204 226 206 189 191 186 194 249 247 249 266 268 240 218 154 52 16 3 13 21 13 8 146 157 206 210 196 190 191 185 185 185 183 188 193 197 199 196 192 194 194 191 188 186 185 186 186 186 187 189 189 189 191 192 191 192 194 195 193 192 193 195 198 200 199 200 202 202 203 205 205 204 204 207 209
218 262 253 199 192 259 249 239 251 250 214 200 206 208 197 190 187 196 214 229 247 248 242 260 241 129 55 5 357 6 12 15 4 62 129 225 225 202 193 191 178 175 180 180 188 196 196 196 195 193 192 190 187 186 186 186 185 185 186 187 189 189 189 192 193 192 192 193 194 193 193 193 194 197 200 200 199 201 202 202 204 207 208 208 209 211
272 294 269 246 244 226 218 235 256 265 237 212 205 209 205 199 197 207 218 224 244 238 221 254 257 117 64 19 11 17 22 29 28 65 118 196 223 200 204 203 188 177 173 173 188 199 197 193 193 191 188 186 184 183 184 185 185 186 188 186 186 189 190 193 194 192 191 193 195 195 193 194 196 197 200 202 202 202 203 202 203 206 209 211 210 211
174 286 226 248 285 173 165 196 216 221 227 217 199 188 204 223 207 187 211 232 228 223 218 245 249 114 55 27 30 36 44 49 45 63 95 113 111 120 160 179 178 169 163 165 176 194 195 191 189 188 186 185 182 181 182 184 185 187 187 184 185 188 192 194 194 192 192 194 196 196 196 196 198 198 200 203 203 204 205 204 204 205 206 208 210 209
187 199 183 211 269 201 179 173 178 191 215 218 178 153 213 250 233 200 209 239 234 235 246 257 241 108 39 360 43 49 47 61 64 66 80 103 118 123 122 131 153 156 156 166 174 189 200 194 189 187 186 185 182 181 182 183 184 185 183 182 182 185 191 194 194 193 194 196 197 199 199 199 200 200 201 203 204 204 206 205 204 202 201 204 208 208
225 204 188 212 232 210 212 202 153 186 227 231 105 128 277 270 249 226 222 227 228 248 266 266 256 109 76 336 37 52 42 57 70 75 79 86 105 126 138 145 154 156 156 168 177 187 198 202 197 190 186 185 183 183 183 182 183 181 179 181 181 180 186 191 192 193 194 197 199 200 202 202 202 203 203 204 206 204 205 207 205 200 199 203 205 207
260 211 186 203 202 194 204 211 55 54 284 330 347 246 236 251 243 230 228 232 240 259 236 260 279 122 94 339 23 50 41 51 66 75 79 81 88 107 139 155 160 166 165 175 188 190 193 201 204 196 189 188 186 185 186 184 184 183 179 180 182 179 181 186 189 191 195 198 200 201 203 204 204 206 206 206 208 207 206 206 205 202 201 202 204 206
261 233 165 157 151 160 169 140 77 72 56 17 325 259 222 212 220 215 214 224 14 283 241 7 332 296 88 20 24 38 32 46 57 61 72 80 87 97 123 153 169 171 162 173 198 203 199 199 202 202 196 190 186 186 188 187 186 186 182 180 180 178 178 181 184 188 192 198 200 201 205 206 206 207 207 206 207 208 208 207 205 203 203 204 206 208
258 239 135 142 148 145 135 114 89 77 64 44 299 285 283 244 215 215 222 225 271 260 267 30 5 7 54 37 34 30 14 40 55 63 80 87 90 103 122 140 165 173 166 178 193 202 210 209 205 205 200 197 192 188 190 190 188 189 187 183 180 177 174 174 178 184 188 194 200 201 202 206 207 208 206 204 203 203 205 207 203 202 205 207 207 212
279 253 187 142 137 127 115 106 94 77 47 13 320 307 310 333 6 309 248 227 224 240 269 38 120 67 46 25 45 39 1 49 64 72 83 81 80 95 116 125 134 148 163 183 184 183 202 211 208 206 204 201 192 184 189 196 195 198 197 190 185 181 177 177 180 185 188 194 201 203 202 203 204 205 204 202 200 199 199 201 201 203 206 207 209 212
236 252 253 172 158 156 134 112 97 88 67 20 350 320 312 342 8 345 294 230 215 202 166 220 214 119 77 47 69 81 101 84 79 69 72 75 76 80 97 112 120 132 144 161 171 179 190 191 200 213 209 195 178 177 190 197 200 208 207 200 194 185 180 181 182 185 191 199 203 203 204 207 205 203 203 202 201 200 199 199 201 202 203 205 207 208
223 213 232 235 225 188 162 142 114 108 106 108 266 283 294 343 1 312 278 275 260 210 181 212 219 120 101 112 107 106 98 81 63 46 45 51 60 64 64 74 83 97 121 142 171 192 191 189 193 198 193 181 174 178 185 183 182 188 187 186 183 173 169 170 169 176 198 219 219 210 203 209 215 212 207 204 203 201 200 201 202 201 201 203 204 205
273 189 176 246 264 195 181 202 157 141 144 196 208 217 213 162 185 239 109 342 285 249 219 210 145 102 107 123 110 88 68 58 47 34 24 25 35 43 42 42 41 40 52 145 190 185 168 156 177 177 174 177 177 171 165 161 162 162 160 164 167 165 167 171 184 202 211 221 228 223 210 205 215 223 220 212 207 203 200 201 202 201 202 204 205 207
286 252 185 213 251 222 198 217 212 196 203 210 175 174 144 104 32 34 49 34 17 268 234 91 102 114 111 95 84 76 63 53 50 42 33 28 27 33 38 37 35 33 28 23 26 167 167 156 152 164 171 174 167 156 153 154 155 156 162 172 179 181 177 182 212 228 220 214 224 228 220 210 211 221 225 219 214 210 206 204 202 202 202 197 196 201
275 269 223 202 235 237 192 209 231 232 223 174 158 154 132 108 33 35 122 57 39 17 119 118 113 108 98 86 79 81 84 78 66 53 44 38 33 35 37 36 36 36 33 30 31 32 48 153 173 179 184 174 159 157 157 151 146 148 153 160 172 184 181 182 206 222 223 222 226 228 225 219 218 222 224 222 220 218 214 210 202 199 198 193 195 206
285 272 256 226 235 249 223 223 237 250 208 191 192 188 178 180 219 242 212 136 97 39 40 118 115 108 107 106 105 112 121 113 92 66 51 46 41 40 39 36 35 37 38 37 34 33 27 21 150 186 197 196 192 197 196 181 171 167 163 172 197 209 205 199 206 219 226 228 231 233 234 232 230 228 222 216 219 222 222 218 207 200 202 205 210 216
292 276 262 244 231 249 256 240 231 261 235 202 177 183 197 178 134 272 259 118 108 87 41 66 96 120 120 118 122 130 143 139 113 73 50 43 41 42 45 43 38 38 42 41 38 39 36 30 40 169 195 198 202 208 209 210 216 216 203 203 214 220 224 225 223 222 224 227 232 239 238 234 233 234 227 214 216 221 221 222 219 214 214 216 216 215
274 269 270 255 225 238 268 259 229 245 249 159 124 116 92 71 78 79 254 147 118 121 132 135 178 171 138 126 132 143 185 173 114 69 43 41 43 41 44 48 45 43 41 39 37 34 33 39 46 77 193 196 203 208 208 205 205 202 198 202 212 217 223 227 223 217 220 227 231 235 236 232 232 237 239 231 227 228 225 224 223 220 216 213 210 208
242 244 257 257 240 231 258 262 246 246 337 68 105 112 87 70 95 138 226 190 113 128 153 165 180 173 128 119 145 178 243 165 96 66 45 48 49 44 42 46 47 47 46 48 48 39 29 34 41 49 151 204 206 202 202 199 192 190 196 204 209 209 210 217 223 224 226 229 229 231 239 237 227 218 228 235 235 237 236 230 225 220 214 208 204 202
242 239 237 246 248 242 249 260 262 279 67 78 96 92 67 84 148 214 221 175 52 99 157 161 158 124 80 62 164 27 38 79 86 72 61 60 58 55 52 52 52 52 55 58 57 51 41 37 38 45 48 12 222 189 190 194 193 198 206 206 205 207 211 221 232 233 229 225 220 219 228 234 226 210 215 227 230 226 224 229 230 221 210 207 200 188
242 241 242 247 248 238 240 253 258 105 95 96 79 56 61 147 202 240 224 79 2 287 147 150 134 106 82 27 65 61 67 80 81 75 71 69 67 60 55 56 58 57 59 61 61 62 62 55 47 46 43 29 24 172 187 193 195 200 204 204 207 212 216 222 228 229 226 223 226 228 228 228 223 210 204 214 228 226 215 219 231 225 208 198 181 156
245 237 232 240 246 241 237 250 251 196 98 69 64 76 162 219 223 271 55 68 303 264 116 137 128 116 104 64 76 89 95 92 86 82 79 76 73 67 57 54 54 53 56 58 58 60 63 60 54 50 45 37 34 51 180 196 199 197 194 196 205 211 213 216 220 226 232 233 233 233 224 213 210 207 200 201 216 224 216 217 231 227 207 185 160 143
279 262 239 232 243 242 233 239 246 228 111 82 147 153 196 267 39 102 91 64 12 42 98 131 122 118 121 101 98 109 107 97 93 94 89 81 76 73 66 60 56 53 54 55 55 57 60 59 57 53 50 46 44 48 74 109 116 116 121 126 177 205 209 219 228 234 237 230 223 226 227 223 217 213 211 211 212 213 208 207 215 214 199 171 146 135
245 278 261 244 253 252 243 238 241 208 97 97 240 149 89 53 63 108 147 94 103 122 129 129 122 119 122 119 117 117 111 106 106 102 95 89 85 81 77 71 65 60 58 58 59 61 63 64 63 59 56 56 56 59 69 81 83 80 74 64 58 94 139 188 216 217 206 196 193 202 217 218 208 203 208 211 205 193 185 180 177 173 165 150 140 134
320 355 292 284 313 283 285 13 80 122 106 106 42 53 79 86 87 112 203 79 117 153 153 147 146 137 129 126 123 118 114 114 110 102 95 93 91 90 87 81 77 74 70 66 65 68 70 72 70 66 63 62 63 65 68 74 77 75 71 70 77 90 101 114 126 128 130 138 148 157 162 163 166 175 183 183 171 159 159 159 150 140 134 132 132 130
49 92 218 267 313 112 156 133 130 139 133 125 113 89 92 101 110 154 199 143 125 141 165 162 153 143 136 133 128 123 121 119 112 104 97 93 91 92 92 89 86 83 80 76 71 71 74 75 73 69 66 64 65 66 65 66 70 73 74 76 81 88 98 106 109 108 108 111 117 127 130 122 117 115 112 111 114 118 125 130 125 119 117 117 116 115
153 201 224 253 271 222 187 166 149 144 144 137 129 118 104 96 104 161 199 124 130 147 154 151 146 141 136 132 130 128 124 120 115 108 100 94 91 91 90 88 87 83 82 82 80 77 76 75 73 71 68 64 65 69 69 67 69 73 76 77 79 85 91 93 93 93 94 95 98 101 102 102 104 104 102 100 101 100 98 97 100 103 103 103 102 103
158 221 240 249 245 239 133 130 138 134 130 133 127 122 115 106 116 136 137 130 139 149 149 144 141 137 132 130 131 127 119 113 109 104 99 93 89 87 85 84 84 83 81 82 83 82 80 78 76 74 72 69 68 72 75 73 72 73 74 76 80 83 84 84 85 86 85 84 86 89 91 96 103 106 104 103 102 100 95 92 95 100 100 101 104 107
145 200 213 222 222 211 138 151 166 158 145 144 122 110 119 120 125 135 141 142 143 143 142 138 135 133 131 130 129 123 115 111 108 104 101 97 92 91 88 84 82 81 80 80 82 82 83 82 81 79 78 76 74 75 77 77 77 79 79 79 80 81 79 80 81 82 84 86 88 91 93 95 98 100 100 99 97 95 93 93 98 103 102 105 111 117
180 193 180 212 227 233 135 159 173 179 161 153 141 131 136 138 136 137 138 141 144 145 143 138 134 132 133 132 129 124 118 113 110 107 103 99 95 94 93 91 87 84 81 81 82 81 81 82 83 82 80 79 78 77 78 78 79 81 82 81 79 77 78 80 79 79 82 86 88 90 94 95 95 95 96 96 95 94 93 94 100 106 106 107 112 118
204 194 187 246 287 41 96 141 158 153 123 136 141 143 143 142 140 137 135 138 143 145 144 142 138 135 135 133 127 121 116 114 114 111 106 101 98 96 94 92 90 86 84 84 82 81 81 81 81 81 80 79 78 78 79 80 79 80 82 81 78 76 78 82 82 80 79 80 80 81 87 92 94 95 95 95 96 97 97 95 95 97 101 105 110 115